Wind_Speed
11 11 11 11 12 12 13 14 13 12 13 13 12 12 11 12 12 11 10 10 10 10 9 9 10 11 11 11 12 13 13 13 13 13 12 12 12 11 11 12 12 12 12
12 12 12 12 12 12 13 12 13 13 13 13 13 13 13 12 12 11 11 10 10 10 11 10 11 11 11 12 13 13 13 13 12 13 13 13 13 14 13 13 13 13 13
12 13 13 12 12 12 13 13 13 13 13 14 14 13 13 13 13 12 11 11 11 11 11 11 11 12 12 13 13 13 13 13 13 13 13 14 14 15 15 14 14 14 14
12 13 12 12 12 12 13 13 14 13 14 14 14 14 13 13 13 13 13 12 12 12 11 12 12 12 13 13 14 14 14 14 14 14 14 15 15 16 16 16 15 15 15
12 12 12 12 12 12 12 13 14 14 14 14 15 15 14 14 13 13 14 13 13 13 13 13 14 13 13 14 14 15 15 15 15 15 15 15 16 16 17 17 17 17 16
12 11 11 11 12 12 12 13 13 13 14 15 15 15 15 15 14 15 14 14 14 14 14 15 15 14 14 14 14 15 16 16 16 16 16 16 16 17 17 18 18 18 18
11 11 11 10 11 11 11 12 12 12 14 15 15 15 15 16 16 16 15 14 14 15 15 16 16 15 15 15 15 16 16 17 17 18 18 18 18 18 19 19 19 19 19
11 11 11 11 11 11 10 11 12 12 14 15 15 16 16 16 16 16 16 16 16 15 16 16 16 16 16 16 16 16 17 18 18 18 19 19 19 19 19 19 19 19 19
10 10 11 11 11 11 11 11 12 12 13 14 14 14 15 15 15 16 16 16 16 17 17 16 17 17 17 17 17 17 17 18 19 19 20 20 21 21 21 21 21 20 20
9 10 11 11 12 12 11 12 12 11 12 14 14 14 15 15 15 16 16 16 16 17 17 17 17 18 18 18 18 19 19 18 19 20 21 21 21 21 21 21 21 21 21
9 10 11 11 11 12 12 12 12 12 13 14 15 15 16 15 15 15 15 15 16 16 17 17 16 17 18 19 20 20 20 19 20 21 22 22 22 21 22 22 22 22 22
9 10 10 10 10 11 12 13 13 13 13 14 16 16 16 16 15 16 16 16 16 16 16 17 17 17 18 20 20 21 21 21 21 22 22 22 22 22 23 23 23 23 22
8 9 9 10 11 11 12 13 13 13 14 15 15 16 16 16 16 16 17 17 17 16 16 17 18 18 19 20 21 21 21 22 22 22 22 22 23 23 23 24 24 24 24
9 9 9 10 10 11 11 12 13 14 14 14 15 15 15 15 16 17 17 17 17 18 17 18 18 18 19 20 20 20 21 21 22 23 23 24 24 24 24 25 25 26 26
9 9 9 10 9 10 10 11 13 13 14 14 14 15 16 16 16 17 17 18 18 18 18 19 18 19 19 19 19 20 21 21 22 23 23 24 25 25 25 26 26 27 28
8 8 9 10 10 10 10 10 11 12 13 14 14 15 16 16 17 17 17 18 18 19 19 19 19 19 19 20 20 20 20 21 21 22 23 24 25 26 26 27 27 27 28
8 8 9 10 10 10 10 11 10 10 12 13 14 15 16 16 17 17 18 18 18 18 18 18 19 19 19 20 20 20 21 21 21 22 23 24 25 26 26 27 27 28 28
8 9 9 9 9 10 10 11 11 11 12 12 13 14 15 16 17 17 18 18 18 19 19 19 19 19 20 20 21 21 21 22 23 23 24 24 25 26 27 27 28 28 28
9 9 9 9 10 10 11 11 12 12 12 12 13 13 14 14 15 16 16 17 17 18 18 19 19 19 20 21 21 21 21 22 23 24 25 25 25 26 27 28 28 28 28
10 10 10 9 10 10 11 11 11 11 12 12 13 13 14 15 15 16 17 18 18 18 19 19 19 19 20 21 21 22 22 23 23 25 26 26 27 28 28 28 28 28 29
11 11 11 11 11 11 11 11 12 12 12 13 14 14 15 16 17 18 18 19 19 20 20 21 21 21 22 22 22 23 23 23 24 24 24 25 26 27 28 28 28 28 29
13 13 13 13 13 13 13 13 13 14 14 14 15 15 16 17 18 19 20 21 21 21 22 22 23 23 23 23 24 24 24 25 25 25 25 25 26 26 27 27 27 28 29
14 14 15 15 14 14 14 15 15 15 15 15 16 16 16 17 18 19 19 20 21 22 23 23 23 24 24 24 24 25 25 25 26 26 27 26 27 26 26 26 26 27 27
16 16 16 16 16 16 16 16 17 18 18 18 17 17 17 18 18 19 20 20 21 21 22 22 22 23 23 23 24 24 25 26 26 26 26 26 26 25 25 25 25 26 27
17 18 19 18 18 18 18 19 19 19 18 18 18 18 19 19 20 20 21 21 21 21 22 22 22 23 23 23 24 24 25 25 25 25 25 25 24 24 24 25 25 25 26
18 19 19 19 19 19 19 20 21 20 18 18 19 19 19 20 21 21 21 21 21 22 22 22 23 23 24 24 24 24 23 23 23 22 23 23 24 24 24 25 26 26 26
Wind_Direction
266 264 260 260 257 259 259 252 252 251 250 251 252 252 252 250 250 251 256 262 266 266 260 260 259 255 255 250 250 247 246 250 252 249 249 249 249 250 247 243 237 238 239
267 261 262 260 257 258 259 252 251 249 250 251 250 251 250 250 252 255 259 262 265 265 260 257 257 256 256 257 252 249 250 251 250 249 249 250 251 251 247 244 241 240 240
267 261 262 259 258 255 251 251 253 249 252 252 250 248 248 247 250 255 256 260 263 264 263 260 260 260 255 252 251 252 252 250 251 249 251 253 253 250 248 246 245 243 243
267 261 260 258 255 253 252 254 253 250 250 249 246 247 249 247 250 253 252 256 261 262 260 261 263 263 260 258 253 251 250 249 250 252 253 253 254 250 249 250 248 246 246
262 260 260 258 254 255 254 253 251 252 249 246 243 245 247 248 251 253 255 256 261 261 261 264 264 265 265 259 254 253 251 248 248 251 252 252 254 253 251 251 250 249 248
256 256 258 256 256 256 254 255 254 251 246 244 245 245 247 249 251 253 255 257 260 260 263 264 262 261 262 259 256 256 255 252 252 254 254 255 254 254 255 252 250 250 250
256 253 254 253 254 256 256 258 255 252 243 243 245 246 245 247 248 253 254 257 260 261 263 263 263 261 260 259 258 257 256 257 257 257 255 255 256 255 257 254 251 251 251
258 249 250 253 254 255 257 258 256 253 246 243 243 246 246 246 249 252 256 259 261 262 262 261 261 261 260 259 262 260 259 260 260 259 255 255 256 258 257 255 254 253 251
260 251 245 253 252 255 259 259 257 252 247 245 243 245 245 246 252 256 258 259 260 260 261 260 261 262 261 260 262 263 264 263 262 260 258 257 258 259 257 257 257 257 254
261 252 247 251 252 255 256 254 255 252 249 248 245 245 247 251 254 257 257 258 259 260 262 262 262 262 262 262 262 263 265 263 261 260 259 259 260 260 260 260 259 259 256
261 254 250 254 255 255 254 253 253 252 253 251 247 249 251 253 256 258 259 260 262 263 262 263 267 266 264 263 263 265 265 265 263 261 259 259 260 261 262 261 262 261 259
262 257 257 257 257 256 256 256 256 258 257 254 251 252 255 254 258 259 262 263 264 264 266 267 271 271 268 265 264 264 265 267 265 264 263 261 260 260 262 262 262 262 260
261 259 260 260 259 260 259 259 261 263 261 257 255 256 257 256 258 261 264 264 263 265 270 271 272 274 272 268 265 264 267 268 266 264 264 263 262 262 261 261 261 263 262
259 260 263 264 264 263 261 262 264 263 261 259 257 256 255 259 260 262 264 265 267 269 271 274 275 274 276 274 270 267 267 268 266 265 264 264 263 263 264 263 263 262 263
260 262 265 266 268 265 265 267 267 263 259 258 259 257 255 256 260 263 263 263 266 268 271 274 275 277 278 278 273 268 268 268 268 269 267 265 264 264 265 264 265 265 264
263 267 268 266 269 268 266 268 267 263 262 262 261 260 259 258 261 264 266 266 267 269 270 272 273 277 277 276 275 271 270 270 270 269 269 268 266 265 267 266 266 266 266
265 268 270 267 271 273 269 270 273 269 269 268 267 266 265 265 267 268 268 269 271 271 271 271 274 276 278 277 277 275 274 273 272 272 272 270 268 266 267 267 268 267 267
267 269 275 274 273 274 274 271 271 270 272 272 273 274 272 270 270 272 271 270 272 274 275 275 278 277 277 278 279 277 275 273 272 272 271 270 269 268 269 271 270 269 268
267 271 277 278 275 275 275 273 272 271 272 274 275 276 277 276 274 273 274 273 274 275 277 278 279 280 280 279 279 279 277 274 273 273 273 273 272 272 272 272 273 271 270
266 274 282 284 282 280 280 278 277 275 275 276 277 278 279 279 278 275 275 275 275 276 277 279 279 280 281 280 280 280 281 279 279 277 275 275 274 273 274 275 275 272 270
268 274 282 284 282 280 281 280 276 275 275 277 277 276 278 279 279 276 274 274 274 276 277 278 279 280 281 281 281 280 280 280 280 281 280 279 278 277 277 276 274 272 270
266 271 277 281 279 276 275 277 278 278 276 278 280 279 280 281 280 278 277 276 276 276 278 279 279 280 280 281 282 283 282 281 281 281 280 280 279 279 279 278 276 274 271
267 270 273 276 275 274 274 275 276 277 278 280 282 282 283 283 284 282 281 280 279 278 279 280 281 281 283 282 282 282 282 281 281 281 281 280 280 281 281 281 278 276 274
269 270 274 276 274 272 274 276 277 278 278 281 283 285 284 284 286 286 286 284 282 282 282 281 282 283 284 284 282 282 282 282 282 282 281 281 281 282 282 283 282 278 276
268 269 273 276 276 276 277 277 278 278 278 281 283 284 284 285 287 289 288 287 285 284 284 284 283 284 285 286 286 285 284 285 284 283 284 283 282 283 283 284 284 281 278
269 270 272 275 277 277 278 277 277 278 280 282 284 283 283 284 287 289 288 287 286 287 287 287 287 286 285 286 286 286 286 286 285 284 285 285 284 285 284 284 284 284 283
Height
5847 5847 5848 5849 5849 5850 5851 5851 5852 5854 5854 5855 5857 5858 5859 5861 5862 5863 5864 5865 5865 5866 5866 5867 5868 5868 5869 5870 5870 5871 5872 5873 5874 5875 5875 5876 5877 5878 5878 5879 5879 5880 5882
5844 5844 5845 5846 5846 5847 5848 5849 5850 5851 5852 5853 5854 5855 5857 5858 5859 5861 5862 5863 5863 5864 5864 5864 5865 5866 5866 5867 5868 5868 5869 5870 5871 5872 5873 5873 5874 5875 5875 5876 5877 5877 5879
5840 5841 5842 5843 5843 5844 5845 5846 5847 5848 5849 5850 5851 5852 5854 5855 5857 5858 5859 5860 5860 5861 5862 5862 5862 5863 5863 5864 5865 5866 5866 5867 5868 5869 5869 5870 5871 5871 5872 5873 5873 5874 5875
5837 5838 5839 5839 5840 5841 5842 5843 5844 5845 5846 5847 5848 5849 5851 5852 5853 5855 5856 5857 5858 5858 5859 5859 5860 5860 5860 5861 5861 5862 5863 5864 5865 5866 5866 5867 5867 5868 5868 5869 5870 5871 5872
5834 5835 5835 5836 5837 5838 5839 5840 5841 5842 5843 5844 5845 5846 5848 5849 5850 5852 5853 5854 5855 5855 5856 5856 5857 5857 5857 5857 5858 5859 5859 5860 5861 5862 5863 5863 5863 5864 5865 5865 5866 5867 5868
5831 5832 5832 5833 5834 5835 5836 5837 5838 5839 5839 5841 5842 5843 5844 5846 5847 5849 5850 5851 5851 5852 5852 5853 5853 5853 5854 5854 5854 5855 5856 5856 5857 5858 5859 5859 5860 5860 5861 5861 5862 5863 5864
5829 5829 5830 5831 5831 5832 5832 5833 5834 5835 5836 5837 5839 5840 5841 5843 5844 5845 5846 5847 5847 5848 5848 5848 5849 5849 5850 5850 5851 5851 5852 5852 5853 5853 5854 5855 5855 5856 5856 5857 5858 5858 5859
5826 5827 5828 5828 5829 5829 5830 5830 5831 5832 5833 5834 5835 5836 5838 5840 5840 5841 5842 5843 5843 5844 5844 5844 5845 5845 5845 5846 5847 5847 5848 5848 5849 5849 5849 5850 5851 5851 5852 5852 5853 5854 5855
5824 5824 5825 5826 5826 5827 5827 5827 5828 5829 5830 5831 5832 5833 5834 5836 5836 5837 5838 5839 5839 5839 5840 5840 5840 5841 5841 5842 5842 5843 5843 5844 5844 5844 5845 5845 5846 5846 5847 5847 5848 5849 5849
5821 5822 5822 5823 5823 5824 5824 5825 5825 5826 5827 5828 5829 5830 5831 5832 5833 5834 5834 5835 5835 5835 5835 5836 5836 5836 5837 5837 5838 5838 5839 5839 5839 5839 5840 5840 5841 5841 5842 5842 5842 5843 5844
5819 5819 5820 5820 5821 5821 5821 5822 5823 5823 5824 5825 5825 5826 5828 5828 5829 5830 5831 5831 5831 5831 5831 5831 5831 5832 5832 5832 5833 5833 5834 5834 5834 5834 5835 5835 5835 5836 5836 5837 5837 5838 5838
5816 5817 5817 5818 5818 5818 5819 5819 5820 5820 5821 5822 5822 5823 5824 5825 5826 5826 5827 5827 5827 5827 5827 5827 5827 5827 5827 5827 5828 5828 5828 5828 5828 5829 5829 5829 5830 5830 5831 5831 5832 5832 5833
5814 5815 5815 5815 5816 5816 5816 5817 5817 5818 5818 5818 5819 5819 5820 5821 5822 5822 5823 5823 5823 5823 5823 5823 5823 5823 5822 5822 5823 5823 5823 5823 5823 5823 5823 5824 5824 5824 5825 5825 5826 5826 5826
5812 5813 5813 5813 5813 5813 5814 5814 5814 5814 5815 5815 5815 5816 5816 5817 5818 5818 5819 5819 5819 5819 5819 5819 5819 5818 5818 5818 5817 5818 5818 5817 5817 5817 5818 5818 5818 5818 5819 5819 5819 5819 5819
5810 5811 5811 5811 5811 5811 5811 5811 5811 5811 5811 5811 5812 5812 5812 5813 5813 5814 5814 5815 5815 5815 5815 5815 5814 5814 5813 5813 5813 5812 5812 5812 5812 5812 5811 5812 5812 5812 5812 5812 5812 5812 5812
5808 5808 5809 5809 5809 5809 5809 5809 5808 5808 5808 5808 5808 5809 5809 5809 5810 5810 5810 5810 5810 5810 5810 5810 5809 5809 5808 5808 5807 5807 5807 5807 5806 5806 5806 5805 5805 5805 5805 5805 5805 5805 5805
5806 5806 5806 5806 5806 5806 5806 5806 5806 5806 5806 5805 5805 5806 5806 5806 5806 5806 5806 5805 5805 5805 5806 5806 5805 5804 5803 5803 5802 5802 5801 5801 5800 5800 5800 5799 5799 5799 5798 5798 5798 5798 5798
5804 5804 5804 5804 5804 5804 5803 5803 5803 5803 5803 5803 5802 5802 5802 5802 5802 5802 5801 5801 5801 5800 5801 5801 5800 5799 5799 5798 5797 5796 5796 5795 5794 5794 5794 5793 5793 5792 5792 5791 5791 5790 5790
5802 5802 5802 5801 5801 5801 5800 5800 5800 5800 5800 5799 5799 5799 5798 5797 5797 5797 5797 5796 5796 5795 5795 5795 5795 5794 5793 5792 5792 5791 5790 5789 5788 5788 5787 5786 5786 5785 5784 5784 5783 5783 5782
5800 5799 5799 5799 5798 5798 5798 5797 5797 5797 5796 5796 5796 5795 5794 5794 5793 5793 5792 5792 5791 5791 5790 5790 5789 5788 5788 5787 5786 5785 5784 5783 5782 5781 5780 5780 5779 5778 5777 5777 5776 5775 5775
5797 5797 5797 5796 5796 5795 5795 5794 5794 5793 5793 5792 5792 5791 5790 5790 5789 5788 5788 5787 5786 5786 5785 5784 5783 5782 5782 5781 5780 5779 5778 5777 5775 5774 5774 5773 5772 5771 5770 5769 5768 5767 5767
5794 5793 5793 5793 5793 5792 5792 5791 5791 5790 5789 5789 5788 5787 5786 5785 5784 5783 5783 5782 5781 5780 5779 5778 5778 5777 5776 5775 5774 5772 5771 5770 5769 5768 5767 5766 5765 5764 5763 5761 5760 5759 5759
5790 5790 5790 5789 5789 5788 5788 5787 5787 5786 5785 5784 5784 5783 5781 5780 5779 5778 5777 5776 5775 5774 5773 5772 5771 5770 5769 5768 5767 5766 5764 5763 5762 5761 5760 5759 5757 5756 5755 5754 5752 5752 5751
5786 5786 5785 5785 5784 5784 5783 5783 5782 5781 5781 5780 5779 5778 5777 5776 5774 5773 5772 5771 5769 5768 5767 5766 5765 5764 5762 5761 5760 5759 5757 5756 5755 5753 5752 5751 5750 5749 5747 5746 5745 5744 5743
5781 5781 5781 5780 5780 5779 5779 5778 5777 5776 5776 5775 5774 5773 5772 5770 5769 5768 5767 5765 5764 5762 5761 5759 5758 5757 5755 5754 5753 5751 5750 5748 5747 5746 5744 5743 5742 5741 5740 5739 5737 5736 5735
5776 5775 5775 5775 5774 5774 5773 5773 5772 5771 5770 5769 5768 5767 5766 5765 5764 5762 5761 5759 5758 5756 5755 5753 5752 5750 5749 5747 5746 5744 5743 5741 5740 5739 5737 5736 5735 5734 5733 5732 5730 5728 5727